KB2UHF-8 Weather Reports


Display with metric or nautical units.
time (UTC)temp
F
wind
direction
speed
MPH
gust
MPH
rain 1hr
in
rain 24hr
in
rain mn
in
humidity
%
barometer
mb
20260503001516 58 248 6.0 10.0 0.00 0.00 0.00 35 1013.5
20260503000516 58 248 9.0 15.0 0.00 0.00 0.00 34 1013.6
20260502235516 59 248 7.0 13.0 0.00 0.00 0.00 34 1013.5
20260502234516 59 248 5.0 14.0 0.00 0.00 0.00 33 1013.5
20260502233516 59 248 8.0 16.0 0.00 0.00 0.00 32 1013.5
20260502232536 59 270 9.0 18.0 0.00 0.00 0.00 31 1013.6
20260502231516 60 270 9.0 15.0 0.00 0.00 0.00 33 1013.6
20260502230516 60 270 8.0 15.0 0.00 0.00 0.00 32 1014.0
20260502225516 60 248 7.0 14.0 0.00 0.00 0.00 34 1014.0
20260502224516 59 248 9.0 16.0 0.00 0.00 0.00 33 1014.1
20260502223516 59 270 8.0 15.0 0.00 0.00 0.00 33 1014.0
20260502222516 60 248 10.0 18.0 0.00 0.00 0.00 35 1014.4
20260502221516 60 225 6.0 11.0 0.00 0.00 0.00 34 1014.5
20260502220516 59 270 7.0 14.0 0.00 0.00 0.00 32 1014.6
20260502215516 60 270 8.0 15.0 0.00 0.00 0.00 33 1014.7
20260502214517 59 270 7.0 11.0 0.00 0.00 0.00 34 1014.7
20260502213516 59 248 9.0 18.0 0.00 0.00 0.00 32 1014.9
20260502212516 59 293 9.0 24.0 0.00 0.00 0.00 33 1015.0
20260502211516 59 270 5.0 11.0 0.00 0.00 0.00 36 1015.1
20260502210516 59 248 9.0 18.0 0.00 0.00 0.00 33 1015.3
20260502205516 59 248 8.0 17.0 0.00 0.00 0.00 37 1015.3
20260502204516 59 270 9.0 15.0 0.00 0.00 0.00 33 1015.4
20260502203516 58 225 8.0 15.0 0.00 0.00 0.00 36 1015.5
20260502202516 58 248 10.0 21.0 0.00 0.00 0.00 35 1015.6
20260502201536 58 248 6.0 15.0 0.00 0.00 0.00 34 1015.8
20260502200516 58 270 9.0 17.0 0.00 0.00 0.00 31 1015.9
20260502195515 58 270 9.0 14.0 0.00 0.00 0.00 32 1016.1
20260502194516 57 270 10.0 17.0 0.00 0.00 0.00 33 1016.3
20260502193515 57 270 10.0 18.0 0.00 0.00 0.00 34 1016.3
20260502192516 56 270 7.0 14.0 0.00 0.00 0.00 34 1016.5
20260502191515 57 270 7.0 12.0 0.00 0.00 0.00 33 1016.7
20260502190516 57 270 10.0 21.0 0.00 0.00 0.00 35 1016.8
20260502185516 56 248 10.0 19.0 0.00 0.00 0.00 35 1017.0
20260502184517 56 293 8.0 15.0 0.00 0.00 0.00 38 1016.9
20260502183516 56 270 7.0 12.0 0.00 0.00 0.00 37 1017.3
20260502182515 56 270 7.0 13.0 0.00 0.00 0.00 36 1017.4
20260502181515 55 293 6.0 12.0 0.00 0.00 0.00 36 1017.5
20260502180536 54 270 9.0 16.0 0.00 0.00 0.00 35 1017.7
20260502170516 53 270 6.0 13.0 0.00 0.00 0.00 39 1018.4
20260502163515 54 270 8.0 17.0 0.00 0.00 0.00 40 1018.4
20260502162515 54 270 8.0 13.0 0.00 0.00 0.00 38 1018.7
20260502161515 53 315 9.0 15.0 0.00 0.00 0.00 41 1018.8
20260502160515 53 293 9.0 16.0 0.00 0.00 0.00 40 1018.9
20260502151536 50 270 7.0 14.0 0.00 0.00 0.00 43 1019.1
20260502150535 50 270 7.0 13.0 0.00 0.00 0.00 44 1019.1
20260502130517 40 248 3.0 6.0 0.00 0.00 0.00 71 1019.4
20260502123517 38 248 2.0 5.0 0.00 0.00 0.00 76 1019.2
20260502122519 38 225 3.0 6.0 0.00 0.00 0.00 74 1019.1
20260502121519 37 248 2.0 4.0 0.00 0.00 0.00 76 1019.2
20260502120517 36 248 2.0 4.0 0.00 0.00 0.00 76 1019.3
20260502115517 34 248 3.0 5.0 0.00 0.00 0.00 82 1019.2
20260502114517 33 248 1.0 3.0 0.00 0.00 0.00 85 1018.9
20260502113517 33 0.0 1.0 0.00 0.00 0.00 83 1018.9
20260502112537 32 0.0 0.0 0.00 0.00 0.00 84 1018.8
20260502111517 31 0.0 1.0 0.00 0.00 0.00 84 1018.8
20260502110517 31 68 3.0 4.0 0.00 0.00 0.00 85 1018.7
20260502105517 31 0.0 0.0 0.00 0.00 0.00 84 1018.6
20260502104517 30 0.0 1.0 0.00 0.00 0.00 84 1018.8
20260502103517 31 248 2.0 3.0 0.00 0.00 0.00 83 1018.7
20260502102517 32 225 1.0 3.0 0.00 0.00 0.00 82 1018.7
20260502101517 33 225 1.0 3.0 0.00 0.00 0.00 79 1018.8
20260502100517 33 0.0 0.0 0.00 0.00 0.00 79 1018.9
20260502091517 34 0.0 0.0 0.00 0.00 0.00 75 1018.8
20260502090517 33 0.0 0.0 0.00 0.00 0.00 75 1019.0
20260502070517 35 0.0 0.0 0.00 0.00 0.00 64 1019.1
20260502065517 35 0.0 0.0 0.00 0.00 0.00 64 1019.1
20260502064537 36 0.0 0.0 0.00 0.00 0.00 64 1019.2
20260502063517 36 0.0 0.0 0.00 0.00 0.00 63 1019.3
20260502062516 37 0.0 0.0 0.00 0.00 0.00 62 1019.2
20260502061516 37 0.0 0.0 0.00 0.00 0.00 60 1019.2
20260502060537 37 0.0 0.0 0.00 0.00 0.00 61 1019.1
20260502055517 37 0.0 0.0 0.00 0.00 0.00 59 1019.2
20260502054517 38 0.0 0.0 0.00 0.00 0.00 59 1019.2
20260502053517 38 0.0 0.0 0.00 0.00 0.00 57 1019.2
20260502052516 38 0.0 0.0 0.00 0.00 0.00 57 1019.2
20260502051518 38 0.0 0.0 0.00 0.00 0.00 57 1019.1
20260502050516 39 0.0 0.0 0.00 0.00 0.00 56 1019.1
20260502045515 39 0.0 2.0 0.00 0.00 0.00 56 1019.1
20260502044515 39 0.0 0.0 0.00 0.00 0.00 56 1019.2
20260502043535 39 90 1.0 2.0 0.00 0.00 0.00 54 1019.2
20260502042515 40 0.0 0.0 0.00 0.00 0.00 52 1019.2
20260502041515 40 0.0 0.0 0.00 0.00 0.00 51 1019.0
20260502040515 41 0.0 0.0 0.00 0.00 0.00 53 1019.1
20260502035517 42 0.0 0.0 0.00 0.00 0.00 49 1019.1
20260502034518 42 0.0 0.0 0.00 0.00 0.00 49 1019.1
20260502033517 43 0.0 0.0 0.00 0.00 0.00 47 1019.2
20260502032517 43 0.0 0.0 0.00 0.00 0.00 47 1019.1
20260502031519 43 0.0 0.0 0.00 0.00 0.00 47 1019.1
20260502030517 43 0.0 0.0 0.00 0.00 0.00 47 1019.1
20260502025517 43 0.0 0.0 0.00 0.00 0.00 47 1019.1
20260502024517 43 0.0 0.0 0.00 0.00 0.00 47 1018.9
20260502023517 43 0.0 0.0 0.00 0.00 0.00 46 1019.0
20260502022517 43 0.0 0.0 0.00 0.00 0.00 46 1019.0
20260502021517 44 0.0 0.0 0.00 0.00 0.00 46 1018.7
20260502020517 44 68 1.0 5.0 0.00 0.00 0.00 46 1018.6
20260502015537 44 68 2.0 5.0 0.00 0.00 0.00 45 1018.6
20260502014517 45 68 3.0 5.0 0.00 0.00 0.00 45 1018.3
20260502013517 45 68 4.0 8.0 0.00 0.00 0.00 43 1018.3
20260502012537 46 45 2.0 6.0 0.00 0.00 0.00 43 1018.2
20260502011517 46 45 3.0 5.0 0.00 0.00 0.00 43 1018.1
20260502010519 46 45 4.0 9.0 0.00 0.00 0.00 42 1017.9
20260502005517 47 45 3.0 8.0 0.00 0.00 0.00 41 1017.8
20260502004517 47 0 3.0 5.0 0.00 0.00 0.00 42 1017.7
20260502003517 47 0 1.0 3.0 0.00 0.00 0.00 42 1017.6
20260502002517 47 338 3.0 5.0 0.00 0.00 0.00 43 1017.5